This is the latest recevied weather packets stored in our database for station/object 9M4RLD-3. If no packets are shown the sender has not sent any weather packets the latest 10 day(s).
| Time | Temp. | Humidity | Pressure | Rain* | Wind** | Luminosity | Snow |
|---|---|---|---|---|---|---|---|
| 1777566636 | 22.22° C | 100% | 1034.4 hPa | - | - | - | - |
| 1777565436 | 22.22° C | 100% | 1034.5 hPa | - | - | - | - |
| 1777564236 | 22.22° C | 100% | 1034.6 hPa | - | - | - | - |
| 1777563036 | 22.78° C | 100% | 1034.7 hPa | - | - | - | - |
| 1777561836 | 22.78° C | 100% | 1034.7 hPa | - | - | - | - |
| 1777560636 | 22.78° C | 100% | 1034.8 hPa | - | - | - | - |
| 1777559436 | 22.78° C | 100% | 1034.6 hPa | - | - | - | - |
| 1777558236 | 22.78° C | 100% | 1034.2 hPa | - | - | - | - |
| 1777557036 | 23.33° C | 100% | 1033.7 hPa | - | - | - | - |
| 1777555836 | 23.89° C | 100% | 1033.6 hPa | - | - | - | - |
| 1777554636 | 23.89° C | 100% | 1033.6 hPa | - | - | - | - |
| 1777553436 | 23.89° C | 100% | 1033.4 hPa | - | - | - | - |
| 1777552235 | 23.89° C | 100% | 1033 hPa | - | - | - | - |
| 1777551035 | 24.44° C | 100% | 1032.9 hPa | - | - | - | - |
| 1777549835 | 24.44° C | 100% | 1032.6 hPa | - | - | - | - |
| 1777548635 | 24.44° C | 100% | 1032.6 hPa | - | - | - | - |
| 1777547435 | 24.44° C | 100% | 1031.9 hPa | - | - | - | - |
| 1777546235 | 25° C | 100% | 1031.8 hPa | - | - | - | - |
| 1777545035 | 25.56° C | 100% | 1031.8 hPa | - | - | - | - |
| 1777543835 | 25.56° C | 100% | 1031.9 hPa | - | - | - | - |
| 1777542637 | 25.56° C | 100% | 1031.2 hPa | - | - | - | - |
| 1777541436 | 26.11° C | 100% | 1031.3 hPa | - | - | - | - |
| 1777540236 | 26.67° C | 100% | 1031.5 hPa | - | - | - | - |
| 1777539036 | 27.22° C | 100% | 1031.6 hPa | - | - | - | - |
| 1777537836 | 28.33° C | 100% | 1031.7 hPa | - | - | - | - |
* Rain since midnight (hover to see other rain measurements)
** Current wind speed in m/s (hover to see current wind gust speed)